| time (UTC) | temp F | wind direction | speed knots | gust knots | rain 1hr in | rain 24hr in | rain mn in | humidity % | barometer mb |
| 20260506232550 | 60 | 244 | 11.3 | 13.0 | 0.00 | 0.00 | 0.00 | 84 | 1018.5 |
| 20260506232050 | 60 | 244 | 10.4 | 13.9 | 0.00 | 0.00 | 0.00 | 85 | 1018.5 |
| 20260506231558 | 60 | 255 | 11.3 | 13.9 | 0.00 | 0.00 | 0.00 | 85 | 1018.6 |
| 20260506231051 | 60 | 252 | 12.2 | 13.9 | 0.00 | 0.00 | 0.00 | 86 | 1018.5 |
| 20260506230549 | 60 | 257 | 12.2 | 13.0 | 0.00 | 0.00 | 0.00 | 86 | 1018.7 |
| 20260506230058 | 60 | 245 | 11.3 | 13.0 | 0.00 | 0.00 | 0.00 | 87 | 1018.8 |
| 20260506225551 | 60 | 261 | 12.2 | 13.0 | 0.00 | 0.00 | 0.00 | 87 | 1018.9 |
| 20260506225051 | 60 | 254 | 11.3 | 13.0 | 0.00 | 0.00 | 0.00 | 87 | 1018.9 |
| 20260506224553 | 60 | 252 | 12.2 | 13.0 | 0.00 | 0.00 | 0.00 | 87 | 1019.0 |
| 20260506224050 | 60 | 245 | 11.3 | 12.2 | 0.00 | 0.00 | 0.00 | 87 | 1019.1 |
| 20260506223552 | 60 | 249 | 9.6 | 11.3 | 0.00 | 0.00 | 0.00 | 86 | 1019.2 |
| 20260506223057 | 60 | 246 | 9.6 | 11.3 | 0.00 | 0.00 | 0.00 | 86 | 1019.3 |
| 20260506222551 | 60 | 254 | 9.6 | 11.3 | 0.00 | 0.00 | 0.00 | 86 | 1019.4 |
| 20260506222051 | 60 | 246 | 10.4 | 11.3 | 0.00 | 0.00 | 0.00 | 86 | 1019.4 |
| 20260506221553 | 60 | 254 | 10.4 | 11.3 | 0.00 | 0.00 | 0.00 | 86 | 1019.5 |
| 20260506221050 | 60 | 259 | 10.4 | 12.2 | 0.00 | 0.00 | 0.00 | 86 | 1019.6 |
| 20260506220550 | 60 | 251 | 10.4 | 12.2 | 0.00 | 0.00 | 0.00 | 86 | 1019.7 |
| 20260506220057 | 60 | 253 | 11.3 | 12.2 | 0.00 | 0.00 | 0.00 | 87 | 1019.7 |
| 20260506215550 | 60 | 248 | 11.3 | 12.2 | 0.00 | 0.00 | 0.00 | 86 | 1019.7 |
| 20260506215050 | 60 | 249 | 11.3 | 12.2 | 0.00 | 0.00 | 0.00 | 86 | 1019.9 |
| 20260506214557 | 60 | 254 | 10.4 | 12.2 | 0.00 | 0.00 | 0.00 | 86 | 1019.9 |
| 20260506214050 | 60 | 244 | 11.3 | 12.2 | 0.00 | 0.00 | 0.00 | 86 | 1019.9 |
| 20260506213549 | 61 | 257 | 11.3 | 12.2 | 0.00 | 0.00 | 0.00 | 84 | 1019.8 |
| 20260506213113 | 61 | 242 | 9.6 | 11.3 | 0.00 | 0.00 | 0.00 | 83 | 1019.9 |
| 20260506212551 | 61 | 239 | 10.4 | 11.3 | 0.00 | 0.00 | 0.00 | 83 | 1020.0 |
| 20260506212051 | 61 | 242 | 9.6 | 10.4 | 0.00 | 0.00 | 0.00 | 83 | 1019.9 |
| 20260506211632 | 61 | 240 | 8.7 | 10.4 | 0.00 | 0.00 | 0.00 | 83 | 1020.1 |
| 20260506211051 | 61 | 242 | 8.7 | 10.4 | 0.00 | 0.00 | 0.00 | 84 | 1020.1 |
| 20260506210551 | 61 | 246 | 7.8 | 9.6 | 0.00 | 0.00 | 0.00 | 84 | 1020.1 |
| 20260506205550 | 61 | 240 | 7.8 | 8.7 | 0.00 | 0.00 | 0.00 | 83 | 1020.2 |
| 20260506205050 | 61 | 246 | 7.8 | 9.6 | 0.00 | 0.00 | 0.00 | 84 | 1020.2 |
| 20260506204559 | 61 | 230 | 7.0 | 9.6 | 0.00 | 0.00 | 0.00 | 84 | 1020.2 |
| 20260506204051 | 60 | 242 | 7.0 | 8.7 | 0.00 | 0.00 | 0.00 | 83 | 1020.3 |
| 20260506203550 | 61 | 244 | 6.1 | 7.8 | 0.00 | 0.00 | 0.00 | 83 | 1020.3 |
| 20260506203105 | 61 | 257 | 6.1 | 7.8 | 0.00 | 0.00 | 0.00 | 83 | 1020.2 |
| 20260506202550 | 61 | 246 | 6.1 | 7.8 | 0.00 | 0.00 | 0.00 | 84 | 1020.3 |
| 20260506202054 | 60 | 254 | 6.1 | 7.0 | 0.00 | 0.00 | 0.00 | 84 | 1020.4 |
| 20260506201610 | 60 | 242 | 6.1 | 7.8 | 0.00 | 0.00 | 0.00 | 84 | 1020.4 |
| 20260506201049 | 60 | 234 | 6.1 | 7.8 | 0.00 | 0.00 | 0.00 | 83 | 1020.5 |
| 20260506200550 | 60 | 244 | 6.1 | 7.0 | 0.00 | 0.00 | 0.00 | 83 | 1020.4 |
| 20260506200059 | 60 | 248 | 5.2 | 7.0 | 0.00 | 0.00 | 0.00 | 84 | 1020.5 |
| 20260506195552 | 60 | 240 | 6.1 | 7.8 | 0.00 | 0.00 | 0.00 | 83 | 1020.4 |
| 20260506195052 | 60 | 243 | 5.2 | 7.8 | 0.00 | 0.00 | 0.00 | 84 | 1020.5 |
| 20260506194610 | 60 | 239 | 5.2 | 7.0 | 0.00 | 0.00 | 0.00 | 83 | 1020.5 |
| 20260506194054 | 60 | 242 | 5.2 | 7.0 | 0.00 | 0.00 | 0.00 | 84 | 1020.6 |
| 20260506193554 | 60 | 239 | 5.2 | 7.0 | 0.00 | 0.00 | 0.00 | 83 | 1020.5 |
| 20260506193054 | 60 | 246 | 6.1 | 7.0 | 0.00 | 0.00 | 0.00 | 84 | 1020.5 |
| 20260506192551 | 60 | 244 | 6.1 | 7.0 | 0.00 | 0.00 | 0.00 | 84 | 1020.6 |
| 20260506192054 | 60 | 244 | 5.2 | 7.0 | 0.00 | 0.00 | 0.00 | 84 | 1020.6 |
| 20260506191605 | 60 | 237 | 5.2 | 7.0 | 0.00 | 0.00 | 0.00 | 83 | 1020.6 |
| 20260506191052 | 60 | 224 | 5.2 | 7.0 | 0.00 | 0.00 | 0.00 | 84 | 1020.6 |
| 20260506190550 | 60 | 240 | 5.2 | 7.0 | 0.00 | 0.00 | 0.00 | 84 | 1020.6 |
| 20260506190055 | 60 | 239 | 5.2 | 7.0 | 0.00 | 0.00 | 0.00 | 83 | 1020.6 |
| 20260506185552 | 60 | 242 | 6.1 | 7.0 | 0.00 | 0.00 | 0.00 | 83 | 1020.8 |
| 20260506185054 | 60 | 228 | 5.2 | 7.0 | 0.00 | 0.00 | 0.00 | 83 | 1020.8 |
| 20260506184605 | 60 | 222 | 5.2 | 7.0 | 0.00 | 0.00 | 0.00 | 83 | 1020.9 |
| 20260506184051 | 60 | 228 | 5.2 | 7.0 | 0.00 | 0.00 | 0.00 | 83 | 1020.9 |
| 20260506183550 | 60 | 233 | 4.3 | 7.8 | 0.00 | 0.00 | 0.00 | 83 | 1021.0 |
| 20260506183103 | 60 | 234 | 6.1 | 7.8 | 0.00 | 0.00 | 0.00 | 84 | 1020.9 |
| 20260506182549 | 59 | 225 | 6.1 | 7.8 | 0.00 | 0.00 | 0.00 | 83 | 1020.9 |
| 20260506182052 | 59 | 227 | 6.1 | 7.8 | 0.00 | 0.00 | 0.00 | 83 | 1020.9 |
| 20260506181552 | 60 | 226 | 6.1 | 7.8 | 0.00 | 0.00 | 0.00 | 83 | 1021.0 |
| 20260506181052 | 59 | 225 | 7.0 | 8.7 | 0.00 | 0.00 | 0.00 | 83 | 1021.0 |
| 20260506180552 | 60 | 245 | 7.0 | 8.7 | 0.00 | 0.00 | 0.00 | 83 | 1021.0 |
| 20260506180058 | 60 | 240 | 7.0 | 8.7 | 0.00 | 0.00 | 0.00 | 83 | 1021.0 |
| 20260506175551 | 60 | 255 | 7.0 | 7.8 | 0.00 | 0.00 | 0.00 | 83 | 1021.0 |
| 20260506175049 | 60 | 242 | 6.1 | 7.0 | 0.00 | 0.00 | 0.00 | 83 | 1021.0 |
| 20260506174552 | 60 | 263 | 5.2 | 7.0 | 0.00 | 0.00 | 0.00 | 84 | 1020.9 |
| 20260506174051 | 59 | 236 | 5.2 | 7.8 | 0.00 | 0.00 | 0.00 | 82 | 1020.9 |
| 20260506173551 | 60 | 234 | 5.2 | 7.8 | 0.00 | 0.00 | 0.00 | 83 | 1020.8 |
| 20260506173053 | 60 | 240 | 5.2 | 7.0 | 0.00 | 0.00 | 0.00 | 82 | 1020.9 |
| 20260506172554 | 59 | 236 | 6.1 | 7.0 | 0.00 | 0.00 | 0.00 | 82 | 1020.8 |
| 20260506172051 | 60 | 246 | 5.2 | 6.1 | 0.00 | 0.00 | 0.00 | 82 | 1020.9 |
| 20260506171553 | 59 | 249 | 4.3 | 6.1 | 0.00 | 0.00 | 0.00 | 82 | 1020.8 |
| 20260506171053 | 59 | 243 | 4.3 | 6.1 | 0.00 | 0.00 | 0.00 | 82 | 1020.7 |
| 20260506170549 | 59 | 258 | 3.5 | 5.2 | 0.00 | 0.00 | 0.00 | 82 | 1020.7 |
| 20260506170107 | 59 | 238 | 3.5 | 4.3 | 0.00 | 0.00 | 0.00 | 82 | 1020.7 |
| 20260506165553 | 59 | 253 | 3.5 | 4.3 | 0.00 | 0.00 | 0.00 | 82 | 1020.7 |
| 20260506165051 | 59 | 260 | 3.5 | 4.3 | 0.00 | 0.00 | 0.00 | 82 | 1020.7 |
| 20260506164551 | 59 | 265 | 3.5 | 5.2 | 0.00 | 0.00 | 0.00 | 82 | 1020.8 |
| 20260506164049 | 59 | 264 | 4.3 | 5.2 | 0.00 | 0.00 | 0.00 | 82 | 1020.7 |
| 20260506163553 | 59 | 264 | 3.5 | 5.2 | 0.00 | 0.00 | 0.00 | 82 | 1020.7 |
| 20260506163102 | 59 | 265 | 4.3 | 5.2 | 0.00 | 0.00 | 0.00 | 82 | 1020.7 |
| 20260506162550 | 59 | 262 | 4.3 | 5.2 | 0.00 | 0.00 | 0.00 | 81 | 1020.7 |
| 20260506162049 | 59 | 258 | 4.3 | 5.2 | 0.00 | 0.00 | 0.00 | 80 | 1020.7 |
| 20260506161551 | 59 | 263 | 3.5 | 5.2 | 0.00 | 0.00 | 0.00 | 81 | 1020.7 |
| 20260506161049 | 58 | 257 | 3.5 | 5.2 | 0.00 | 0.00 | 0.00 | 81 | 1020.6 |
| 20260506160549 | 58 | 257 | 3.5 | 5.2 | 0.00 | 0.00 | 0.00 | 81 | 1020.6 |
| 20260506160053 | 58 | 264 | 3.5 | 5.2 | 0.00 | 0.00 | 0.00 | 82 | 1020.6 |
| 20260506155551 | 58 | 264 | 3.5 | 5.2 | 0.00 | 0.00 | 0.00 | 82 | 1020.6 |
| 20260506155055 | 58 | 247 | 3.5 | 3.5 | 0.00 | 0.00 | 0.00 | 82 | 1020.5 |
| 20260506154552 | 58 | 265 | 2.6 | 3.5 | 0.00 | 0.00 | 0.00 | 82 | 1020.5 |
| 20260506154052 | 58 | 265 | 2.6 | 3.5 | 0.00 | 0.00 | 0.00 | 82 | 1020.4 |
| 20260506153550 | 58 | 265 | 2.6 | 2.6 | 0.00 | 0.00 | 0.00 | 81 | 1020.4 |
| 20260506153055 | 58 | 265 | 2.6 | 3.5 | 0.00 | 0.00 | 0.00 | 80 | 1020.5 |
| 20260506152549 | 59 | 265 | 1.7 | 3.5 | 0.00 | 0.00 | 0.00 | 79 | 1020.5 |
| 20260506152050 | 60 | 269 | 1.7 | 3.5 | 0.00 | 0.00 | 0.00 | 77 | 1020.5 |
| 20260506151602 | 60 | 102 | 0.9 | 2.6 | 0.00 | 0.00 | 0.00 | 77 | 1020.5 |
| 20260506151053 | 60 | 352 | 0.9 | 3.5 | 0.00 | 0.00 | 0.00 | 76 | 1020.5 |
| 20260506150550 | 60 | 52 | 1.7 | 3.5 | 0.00 | 0.00 | 0.00 | 76 | 1020.5 |
| 20260506150100 | 60 | 28 | 2.6 | 6.1 | 0.00 | 0.00 | 0.00 | 76 | 1020.5 |
| 20260506145549 | 60 | 82 | 1.7 | 6.1 | 0.00 | 0.00 | 0.00 | 77 | 1020.5 |
| 20260506145054 | 59 | 78 | 3.5 | 5.2 | 0.00 | 0.00 | 0.00 | 77 | 1020.5 |
| 20260506144605 | 59 | 66 | 2.6 | 5.2 | 0.00 | 0.00 | 0.00 | 79 | 1020.5 |
| 20260506144051 | 58 | 39 | 3.5 | 5.2 | 0.00 | 0.00 | 0.00 | 81 | 1020.3 |
| 20260506143551 | 58 | 46 | 0.9 | 2.6 | 0.00 | 0.00 | 0.00 | 82 | 1020.3 |
| 20260506143108 | 57 | 28 | 0.9 | 1.7 | 0.00 | 0.00 | 0.00 | 84 | 1020.3 |
| 20260506142551 | 57 | 28 | 0.0 | 2.6 | 0.00 | 0.00 | 0.00 | 84 | 1020.3 |
| 20260506142052 | 56 | 28 | 0.9 | 2.6 | 0.00 | 0.00 | 0.00 | 85 | 1020.3 |
| 20260506141556 | 56 | 32 | 0.9 | 1.7 | 0.00 | 0.00 | 0.00 | 86 | 1020.3 |
| 20260506141053 | 56 | 0 | 0.0 | 1.7 | 0.00 | 0.00 | 0.00 | 86 | 1020.3 |
| 20260506140552 | 55 | 31 | 0.9 | 2.6 | 0.00 | 0.00 | 0.00 | 86 | 1020.2 |
| 20260506140056 | 55 | 31 | 1.7 | 2.6 | 0.00 | 0.00 | 0.00 | 86 | 1020.2 |
| 20260506135549 | 54 | 31 | 1.7 | 2.6 | 0.00 | 0.00 | 0.00 | 86 | 1020.2 |
| 20260506135049 | 54 | 46 | 0.9 | 2.6 | 0.00 | 0.00 | 0.00 | 86 | 1020.1 |
| 20260506134557 | 54 | 47 | 1.7 | 3.5 | 0.00 | 0.00 | 0.00 | 87 | 1020.1 |
| 20260506134049 | 53 | 49 | 2.6 | 3.5 | 0.00 | 0.00 | 0.00 | 86 | 1020.1 |
| 20260506133549 | 53 | 67 | 2.6 | 3.5 | 0.00 | 0.00 | 0.00 | 86 | 1020.0 |
| 20260506133059 | 52 | 75 | 2.6 | 3.5 | 0.00 | 0.00 | 0.00 | 86 | 1020.0 |
| 20260506132549 | 53 | 78 | 2.6 | 3.5 | 0.00 | 0.00 | 0.00 | 85 | 1020.0 |
| 20260506132054 | 53 | 74 | 1.7 | 2.6 | 0.00 | 0.00 | 0.00 | 85 | 1020.0 |
| 20260506131600 | 53 | 104 | 0.9 | 1.7 | 0.00 | 0.00 | 0.00 | 85 | 1020.0 |
| 20260506131054 | 54 | 105 | 1.7 | 2.6 | 0.00 | 0.00 | 0.00 | 85 | 1020.0 |
| 20260506130552 | 54 | 121 | 0.9 | 2.6 | 0.00 | 0.00 | 0.00 | 85 | 1019.9 |
| 20260506125554 | 55 | 154 | 1.7 | 2.6 | 0.00 | 0.00 | 0.00 | 86 | 1019.9 |
| 20260506125052 | 55 | 153 | 1.7 | 3.5 | 0.00 | 0.00 | 0.00 | 86 | 1019.8 |
| 20260506124558 | 55 | 128 | 1.7 | 3.5 | 0.00 | 0.00 | 0.00 | 86 | 1019.8 |
| 20260506124051 | 55 | 134 | 2.6 | 3.5 | 0.00 | 0.00 | 0.00 | 86 | 1019.6 |
| 20260506123551 | 55 | 111 | 1.7 | 2.6 | 0.00 | 0.00 | 0.00 | 86 | 1019.7 |
| 20260506123052 | 55 | 83 | 0.9 | 1.7 | 0.00 | 0.00 | 0.00 | 86 | 1019.6 |
| 20260506122551 | 55 | 0 | 0.0 | 0.0 | 0.00 | 0.00 | 0.00 | 85 | 1019.6 |
| 20260506122051 | 55 | 0 | 0.0 | 1.7 | 0.00 | 0.00 | 0.00 | 85 | 1019.4 |
| 20260506121552 | 55 | 0 | 0.0 | 1.7 | 0.00 | 0.00 | 0.00 | 85 | 1019.4 |
| 20260506121051 | 55 | 83 | 0.0 | 1.7 | 0.00 | 0.00 | 0.00 | 85 | 1019.3 |
| 20260506120552 | 55 | 0 | 0.0 | 0.0 | 0.00 | 0.00 | 0.00 | 85 | 1019.3 |
| 20260506120055 | 55 | 0 | 0.0 | 0.0 | 0.00 | 0.00 | 0.00 | 84 | 1019.2 |
| 20260506115552 | 55 | 0 | 0.0 | 1.7 | 0.00 | 0.00 | 0.00 | 84 | 1019.2 |
| 20260506115051 | 55 | 0 | 0.0 | 2.6 | 0.00 | 0.00 | 0.00 | 84 | 1019.1 |
| 20260506114555 | 55 | 0 | 0.0 | 2.6 | 0.00 | 0.00 | 0.00 | 84 | 1019.1 |
| 20260506114051 | 55 | 83 | 1.7 | 2.6 | 0.00 | 0.00 | 0.00 | 84 | 1019.1 |
| 20260506113551 | 55 | 80 | 1.7 | 3.5 | 0.00 | 0.00 | 0.00 | 84 | 1019.1 |
| 20260506113052 | 55 | 80 | 2.6 | 3.5 | 0.00 | 0.00 | 0.00 | 84 | 1019.1 |
| 20260506112553 | 55 | 86 | 2.6 | 3.5 | 0.00 | 0.00 | 0.00 | 84 | 1019.0 |
| 20260506112051 | 55 | 81 | 2.6 | 3.5 | 0.00 | 0.00 | 0.00 | 84 | 1019.0 |
| 20260506111553 | 55 | 74 | 1.7 | 2.6 | 0.00 | 0.00 | 0.00 | 84 | 1019.1 |
| 20260506111051 | 55 | 67 | 2.6 | 2.6 | 0.00 | 0.00 | 0.00 | 84 | 1019.1 |
| 20260506110555 | 55 | 62 | 1.7 | 3.5 | 0.00 | 0.00 | 0.00 | 85 | 1019.1 |
| 20260506110052 | 56 | 59 | 1.7 | 3.5 | 0.00 | 0.00 | 0.00 | 85 | 1019.1 |
| 20260506105551 | 55 | 28 | 1.7 | 2.6 | 0.00 | 0.00 | 0.00 | 85 | 1019.0 |
| 20260506105052 | 55 | 0 | 0.0 | 0.0 | 0.00 | 0.00 | 0.00 | 85 | 1019.1 |
| 20260506104553 | 55 | 0 | 0.0 | 0.0 | 0.00 | 0.00 | 0.00 | 85 | 1019.0 |
| 20260506104051 | 55 | 0 | 0.0 | 0.0 | 0.00 | 0.00 | 0.00 | 85 | 1019.1 |
| 20260506103552 | 55 | 0 | 0.0 | 0.9 | 0.00 | 0.00 | 0.00 | 85 | 1019.0 |
| 20260506103055 | 56 | 0 | 0.0 | 0.9 | 0.00 | 0.00 | 0.00 | 85 | 1019.0 |
| 20260506102552 | 55 | 61 | 0.0 | 2.6 | 0.00 | 0.00 | 0.00 | 85 | 1019.0 |
| 20260506102052 | 55 | 61 | 0.9 | 3.5 | 0.00 | 0.00 | 0.00 | 84 | 1018.9 |
| 20260506101552 | 55 | 61 | 2.6 | 3.5 | 0.00 | 0.00 | 0.00 | 84 | 1018.9 |
| 20260506101051 | 55 | 61 | 2.6 | 3.5 | 0.00 | 0.00 | 0.00 | 84 | 1018.9 |
| 20260506100551 | 55 | 78 | 1.7 | 2.6 | 0.00 | 0.00 | 0.00 | 84 | 1019.1 |
| 20260506100053 | 56 | 78 | 0.9 | 2.6 | 0.00 | 0.00 | 0.00 | 84 | 1019.0 |
| 20260506095551 | 56 | 89 | 0.0 | 2.6 | 0.00 | 0.00 | 0.00 | 84 | 1019.1 |
| 20260506095055 | 56 | 89 | 0.0 | 4.3 | 0.00 | 0.00 | 0.00 | 84 | 1019.1 |
| 20260506094554 | 56 | 97 | 2.6 | 4.3 | 0.00 | 0.00 | 0.00 | 84 | 1019.0 |
| 20260506094052 | 56 | 77 | 2.6 | 3.5 | 0.00 | 0.00 | 0.00 | 84 | 1019.0 |
| 20260506093552 | 56 | 76 | 2.6 | 4.3 | 0.00 | 0.00 | 0.00 | 84 | 1019.1 |
| 20260506093055 | 56 | 69 | 2.6 | 4.3 | 0.00 | 0.00 | 0.00 | 84 | 1019.1 |
| 20260506092550 | 56 | 74 | 2.6 | 4.3 | 0.00 | 0.00 | 0.00 | 84 | 1019.1 |
| 20260506092049 | 56 | 60 | 3.5 | 4.3 | 0.00 | 0.00 | 0.00 | 84 | 1019.2 |
| 20260506091559 | 56 | 57 | 2.6 | 5.2 | 0.00 | 0.00 | 0.00 | 84 | 1019.3 |
| 20260506091052 | 57 | 71 | 1.7 | 6.1 | 0.00 | 0.00 | 0.00 | 84 | 1019.3 |
| 20260506090551 | 57 | 55 | 4.3 | 6.1 | 0.00 | 0.00 | 0.00 | 84 | 1019.3 |
| 20260506090056 | 57 | 58 | 3.5 | 7.0 | 0.00 | 0.00 | 0.00 | 84 | 1019.3 |
| 20260506085551 | 57 | 65 | 3.5 | 7.0 | 0.00 | 0.00 | 0.00 | 84 | 1019.3 |
| 20260506085049 | 57 | 68 | 3.5 | 7.8 | 0.00 | 0.00 | 0.00 | 84 | 1019.4 |
| 20260506084612 | 57 | 74 | 3.5 | 7.8 | 0.00 | 0.00 | 0.00 | 84 | 1019.4 |
| 20260506084050 | 57 | 59 | 4.3 | 7.8 | 0.00 | 0.00 | 0.00 | 84 | 1019.5 |
| 20260506083550 | 57 | 64 | 5.2 | 7.8 | 0.00 | 0.00 | 0.00 | 84 | 1019.4 |
| 20260506083054 | 57 | 63 | 5.2 | 8.7 | 0.00 | 0.00 | 0.00 | 84 | 1019.4 |
| 20260506082550 | 57 | 67 | 4.3 | 9.6 | 0.00 | 0.00 | 0.00 | 84 | 1019.4 |
| 20260506082051 | 57 | 59 | 6.1 | 9.6 | 0.00 | 0.00 | 0.00 | 84 | 1019.3 |
| 20260506081553 | 57 | 77 | 5.2 | 8.7 | 0.00 | 0.00 | 0.00 | 84 | 1019.4 |
| 20260506081049 | 57 | 66 | 5.2 | 8.7 | 0.00 | 0.00 | 0.00 | 84 | 1019.4 |
| 20260506080552 | 57 | 69 | 4.3 | 8.7 | 0.00 | 0.00 | 0.00 | 84 | 1019.5 |
| 20260506073100 | 57 | 63 | 7.8 | 12.2 | 0.00 | 0.00 | 0.00 | 84 | 1019.3 |
| 20260506072552 | 57 | 69 | 7.0 | 10.4 | 0.00 | 0.00 | 0.00 | 84 | 1019.3 |
| 20260506072053 | 57 | 76 | 7.0 | 12.2 | 0.00 | 0.00 | 0.00 | 84 | 1019.3 |
| 20260506071554 | 57 | 46 | 7.8 | 12.2 | 0.00 | 0.00 | 0.00 | 84 | 1019.3 |
| 20260506071051 | 58 | 64 | 7.0 | 12.2 | 0.00 | 0.00 | 0.00 | 84 | 1019.3 |
| 20260506070551 | 58 | 77 | 6.1 | 10.4 | 0.00 | 0.00 | 0.00 | 84 | 1019.2 |
| 20260506062052 | 58 | 85 | 5.2 | 8.7 | 0.00 | 0.00 | 0.00 | 84 | 1018.7 |
| 20260506061600 | 58 | 64 | 5.2 | 8.7 | 0.00 | 0.00 | 0.00 | 85 | 1018.7 |
| 20260506061052 | 58 | 63 | 6.1 | 8.7 | 0.00 | 0.00 | 0.00 | 85 | 1018.5 |
| 20260506060551 | 58 | 71 | 5.2 | 8.7 | 0.00 | 0.00 | 0.00 | 85 | 1018.5 |
| 20260506051051 | 58 | 88 | 2.6 | 7.0 | 0.00 | 0.00 | 0.00 | 85 | 1018.3 |
| 20260506050553 | 58 | 94 | 2.6 | 7.0 | 0.00 | 0.00 | 0.00 | 85 | 1018.3 |
| 20260506050108 | 58 | 88 | 5.2 | 7.0 | 0.00 | 0.00 | 0.00 | 85 | 1018.1 |
| 20260506045051 | 58 | 86 | 3.5 | 7.0 | 0.00 | 0.00 | 0.00 | 86 | 1018.1 |
| 20260506044554 | 58 | 86 | 3.5 | 7.0 | 0.00 | 0.00 | 0.00 | 86 | 1018.1 |
| 20260506044050 | 58 | 78 | 3.5 | 6.1 | 0.00 | 0.00 | 0.00 | 86 | 1018.0 |
| 20260506043548 | 58 | 87 | 3.5 | 7.8 | 0.00 | 0.00 | 0.00 | 86 | 1018.0 |
| 20260506043055 | 58 | 47 | 4.3 | 7.8 | 0.00 | 0.00 | 0.00 | 86 | 1017.9 |
| 20260506042551 | 58 | 84 | 4.3 | 7.0 | 0.00 | 0.00 | 0.00 | 86 | 1017.9 |
| 20260506042048 | 58 | 84 | 3.5 | 7.0 | 0.00 | 0.00 | 0.00 | 86 | 1017.9 |
| 20260506041552 | 58 | 74 | 3.5 | 6.1 | 0.00 | 0.00 | 0.00 | 86 | 1017.9 |
| 20260506041048 | 59 | 84 | 1.7 | 3.5 | 0.00 | 0.00 | 0.00 | 86 | 1017.7 |
| 20260506040551 | 58 | 75 | 2.6 | 3.5 | 0.00 | 0.00 | 0.00 | 87 | 1017.6 |
| 20260506040104 | 58 | 85 | 2.6 | 3.5 | 0.00 | 0.00 | 0.00 | 86 | 1017.5 |
| 20260506035551 | 58 | 82 | 0.9 | 2.6 | 0.00 | 0.00 | 0.00 | 87 | 1017.5 |
| 20260506035054 | 58 | 136 | 1.7 | 2.6 | 0.00 | 0.00 | 0.00 | 87 | 1017.4 |
| 20260506034556 | 58 | 187 | 0.9 | 1.7 | 0.00 | 0.00 | 0.00 | 87 | 1017.3 |
| 20260506034051 | 58 | 187 | 0.9 | 1.7 | 0.00 | 0.00 | 0.00 | 86 | 1017.3 |
| 20260506033551 | 59 | 187 | 0.9 | 2.6 | 0.00 | 0.00 | 0.00 | 86 | 1017.2 |
| 20260506033056 | 59 | 187 | 0.9 | 2.6 | 0.00 | 0.00 | 0.00 | 86 | 1017.3 |
| 20260506032549 | 59 | 187 | 2.6 | 2.6 | 0.00 | 0.00 | 0.00 | 87 | 1017.2 |
| 20260506032050 | 59 | 187 | 0.9 | 3.5 | 0.00 | 0.00 | 0.00 | 86 | 1017.1 |
| 20260506031553 | 59 | 187 | 1.7 | 4.3 | 0.00 | 0.00 | 0.00 | 86 | 1017.0 |
| 20260506031052 | 59 | 187 | 3.5 | 7.0 | 0.00 | 0.00 | 0.00 | 86 | 1016.9 |
| 20260506030548 | 59 | 187 | 4.3 | 7.8 | 0.00 | 0.00 | 0.00 | 86 | 1016.8 |
| 20260506030057 | 59 | 179 | 6.1 | 7.8 | 0.00 | 0.00 | 0.00 | 86 | 1016.6 |
| 20260506025548 | 59 | 155 | 2.6 | 6.1 | 0.00 | 0.00 | 0.00 | 85 | 1016.6 |
| 20260506025048 | 59 | 154 | 3.5 | 6.1 | 0.00 | 0.00 | 0.00 | 85 | 1016.4 |
| 20260506024558 | 59 | 177 | 5.2 | 6.1 | 0.00 | 0.00 | 0.00 | 85 | 1016.4 |
| 20260506024048 | 59 | 198 | 5.2 | 5.2 | 0.00 | 0.00 | 0.00 | 85 | 1016.3 |
| 20260506023550 | 59 | 198 | 4.3 | 5.2 | 0.00 | 0.00 | 0.00 | 84 | 1016.2 |
| 20260506023052 | 60 | 173 | 4.3 | 5.2 | 0.00 | 0.00 | 0.00 | 83 | 1016.3 |
| 20260506022548 | 60 | 201 | 3.5 | 5.2 | 0.00 | 0.00 | 0.00 | 83 | 1016.2 |
| 20260506022048 | 60 | 209 | 3.5 | 5.2 | 0.00 | 0.00 | 0.00 | 84 | 1016.2 |
| 20260506021601 | 60 | 205 | 3.5 | 5.2 | 0.00 | 0.00 | 0.00 | 83 | 1016.1 |
| 20260506021049 | 60 | 216 | 3.5 | 5.2 | 0.00 | 0.00 | 0.00 | 84 | 1016.2 |
| 20260506020548 | 60 | 224 | 3.5 | 4.3 | 0.00 | 0.00 | 0.00 | 83 | 1016.0 |
| 20260506020055 | 60 | 225 | 3.5 | 7.0 | 0.00 | 0.00 | 0.00 | 84 | 1016.1 |
| 20260506015552 | 60 | 209 | 3.5 | 7.0 | 0.00 | 0.00 | 0.00 | 84 | 1016.1 |
| 20260506015050 | 60 | 210 | 5.2 | 7.0 | 0.00 | 0.00 | 0.00 | 83 | 1016.0 |
| 20260506014555 | 60 | 218 | 6.1 | 7.8 | 0.00 | 0.00 | 0.00 | 83 | 1016.0 |
| 20260506014048 | 60 | 225 | 6.1 | 7.8 | 0.00 | 0.00 | 0.00 | 83 | 1016.1 |
| 20260506013549 | 60 | 225 | 7.0 | 9.6 | 0.00 | 0.00 | 0.00 | 84 | 1015.9 |
| 20260506013104 | 60 | 239 | 7.0 | 12.2 | 0.00 | 0.00 | 0.00 | 84 | 1016.1 |
| 20260506012549 | 60 | 239 | 9.6 | 12.2 | 0.00 | 0.00 | 0.00 | 84 | 1016.1 |
| 20260506012049 | 60 | 227 | 11.3 | 13.0 | 0.00 | 0.00 | 0.00 | 84 | 1016.1 |
| 20260506011607 | 60 | 232 | 11.3 | 14.8 | 0.00 | 0.00 | 0.00 | 85 | 1015.9 |
| 20260506011048 | 60 | 245 | 12.2 | 14.8 | 0.00 | 0.00 | 0.00 | 85 | 1016.0 |
| 20260506010548 | 59 | 244 | 13.0 | 15.6 | 0.00 | 0.00 | 0.00 | 85 | 1016.0 |
| 20260506010056 | 59 | 240 | 13.0 | 15.6 | 0.00 | 0.00 | 0.00 | 85 | 1016.1 |
| 20260506005547 | 59 | 240 | 13.0 | 16.5 | 0.00 | 0.00 | 0.00 | 85 | 1016.0 |
| 20260506005047 | 59 | 242 | 13.0 | 16.5 | 0.00 | 0.00 | 0.00 | 85 | 1016.1 |
| 20260506004554 | 59 | 236 | 14.8 | 16.5 | 0.00 | 0.00 | 0.00 | 84 | 1016.1 |
| 20260506004050 | 59 | 240 | 13.9 | 17.4 | 0.00 | 0.00 | 0.00 | 84 | 1016.0 |
| 20260506003549 | 60 | 242 | 13.0 | 17.4 | 0.00 | 0.00 | 0.00 | 84 | 1016.1 |
| 20260506003056 | 60 | 239 | 13.9 | 16.5 | 0.00 | 0.00 | 0.00 | 84 | 1016.1 |
| 20260506002552 | 59 | 252 | 13.9 | 15.6 | 0.00 | 0.00 | 0.00 | 84 | 1016.2 |
| 20260506002050 | 59 | 251 | 13.0 | 16.5 | 0.00 | 0.00 | 0.00 | 84 | 1016.3 |
| 20260506001554 | 59 | 254 | 13.9 | 17.4 | 0.00 | 0.00 | 0.00 | 84 | 1016.2 |
| 20260506001053 | 59 | 237 | 13.9 | 18.2 | 0.00 | 0.00 | 0.00 | 83 | 1016.1 |
| 20260506000548 | 59 | 238 | 13.9 | 18.2 | 0.00 | 0.00 | 0.00 | 83 | 1016.1 |
| 20260506000050 | 59 | 219 | 14.8 | 17.4 | 0.00 | 0.00 | 0.00 | 83 | 1015.9 |
| 20260505235550 | 59 | 224 | 15.6 | 17.4 | 0.00 | 0.00 | 0.00 | 83 | 1016.0 |
| 20260505235050 | 59 | 242 | 13.9 | 15.6 | 0.00 | 0.00 | 0.00 | 83 | 1016.0 |
| 20260505234600 | 60 | 246 | 11.3 | 15.6 | 0.00 | 0.00 | 0.00 | 83 | 1016.0 |
| 20260505234050 | 60 | 250 | 12.2 | 14.8 | 0.00 | 0.00 | 0.00 | 83 | 1016.0 |
| 20260505233550 | 59 | 238 | 12.2 | 14.8 | 0.00 | 0.00 | 0.00 | 83 | 1016.0 |
| 20260505233051 | 60 | 254 | 12.2 | 14.8 | 0.00 | 0.00 | 0.00 | 84 | 1016.0 |